Terminal Aerodrome Forecast
Issued by NWS

Home | Current Version | Previous Version | Text Only | Print | Product List | Glossary On
Versions: 1 2 3 4 5 6 7 8 9 10 11 12 13 14 15 16 17 18 19 20
093
FTUS46 KEKA 291139
TAFCEC
TAF
KCEC 291139Z 2912/3012 33007KT 3SM BR OVC004
     FM291800 26005KT 6SM BR OVC007
     FM292000 28007KT P6SM OVC015
     FM300400 VRB04KT 5SM BR OVC007=

USA.gov is the U.S. government's official web portal to all federal, state and local government web resources and services.